Location: Agendoh
(31.0664°N, 8.9343°W)
Time: 07:43:33
(UTC+00:00)

Cosmos 921 Rocket - Pass Details

Date: 06 December 2021
Orbit: 571 x 632 km, 75.8° (Epoch: 24 January)

Event Time Altitude Azimuth Distance (km) Brightness Sun altitude
Exits shadow 05:29:02 50° 357° (N) 793 3.4 -23.3°
Maximum altitude 05:30:09 81° 75° (ENE) 636 3.0 -23.0°
Drops below altitude 10° 05:34:38 10° 164° (SSE) 1,998 6.0 -22.1°
Sets 05:36:53 0° 165° (SSE) 2,905 6.9 -21.6°
